Regional Weather Roundup
Issued by NWS

Home | Current Version | Previous Version | Text Only | Print | Product List | Glossary Off
Versions: 1 2 3 4 5 6 7 8 9 10 11 12 13 14 15 16 17 18 19 20 21 22 23 24 25 26 27 28 29 30 31 32 33 34 35 36 37 38 39 40 41 42 43 44 45 46 47 48 49 50

000
ASUS43 KDTX 311401
RWRMI
MICHIGAN HOURLY REGIONAL WEATHER ROUNDUP
NATIONAL WEATHER SERVICE DETROIT/PONTIAC MI
900 AM EST SAT JAN 31 2015

NOTE: "FAIR" INDICATES FEW OR NO CLOUDS BELOW 12,000 FEET WITH NO
SIGNIFICANT WEATHER AND/OR OBSTRUCTION TO VISIBILITY.

MIZ047>049-052>055-059>063-066>070-074>076-081>083-311500-
SOUTHEAST LOWER MICHIGAN

CITY           SKY/WX    TMP DP  RH WIND       PRES   REMARKS
ADRIAN         SUNNY     18  14  84 SW7       30.29F WCI   9
ALMA           CLOUDY    21  18  86 S5        30.22S WCI  15
ANN ARBOR      CLOUDY    16  13  88 CALM      30.27S
BAD AXE        CLOUDY    16  12  84 S6        30.23S WCI   7
CARO           CLOUDY    19  13  77 S5        30.22F WCI  12
DETROIT CITY   CLOUDY    20  12  71 SE5       30.30S WCI  13
DETROIT        CLOUDY    18  13  80 S7        30.30S WCI   9
FLINT          CLOUDY    21  13  71 S9        30.24S WCI  11
GROSSE ILE     CLOUDY    21  16  79 S8        30.29S WCI  12
HILLSDALE      MOSUNNY   18  15  89 S3        30.24F
HOWELL         CLOUDY    18  14  84 S6        30.23F WCI   9

CITY           SKY/WX    TMP DP  RH WIND       PRES   REMARKS
JACKSON        SUNNY     20  14  77 SW8       30.24F WCI  10
LAMBERTVILLE   MOSUNNY   23  16  74 SW6       30.31S WCI  16
LANSING        CLEAR     21  15  78 S6        30.24S WCI  13
LAPEER         CLOUDY    20  13  76 SW9       30.23S WCI   9
MASON          CLOUDY    20  15  81 SW3       30.24S
MONROE         CLOUDY    19  16  86 CALM      30.29R
MT. CLEMENS    PTSUNNY   18  12  77 S8        30.25F WCI   8
PONTIAC        CLOUDY    17  11  77 S6        30.24S WCI   9
PORT HOPE        N/A     17   9  70 S3        30.22F
PORT HURON     CLOUDY    14  10  85 S5        30.28R WCI   6
TRI CITIES     CLOUDY    21  14  74 S8        30.22S WCI  11
SAGINAW HB     CLOUDY    21  16  79 S8        30.22S WCI  12
$$
MIZ043>046-050>051-056>058-064>065-071>073-077>080-311500-
SOUTHWEST LOWER MICHIGAN

CITY           SKY/WX    TMP DP  RH WIND       PRES   REMARKS
BATTLE CREEK   PTCLDY    18  12  77 S8        30.24F WCI   8
BENTON HARBOR  CLEAR     22  18  85 S7        30.25F WCI  13
BIG RAPIDS     MOCLDY    19  17  92 SW3       30.16F
COLDWATER      CLEAR     20  15  81 SW9       30.25F WCI  10
FREMONT        PTSUNNY   14  13  93 CALM      30.19S
HOLLAND        CLEAR     24  19  81 S12       30.22F WCI  13
GRAND RAPIDS   MOCLDY    21  16  81 S12       30.22S WCI   9
IONIA          FAIR      21  17  83 SW7       30.21S WCI  13
KALAMAZOO      CLEAR     17  13  84 S8        30.25F WCI   7
LUDINGTON      CLOUDY    31  22  70 W8        30.17S WCI  23
MARSHALL       PTCLDY    18  14  84 SW5       30.24F WCI  11
MOUNT PLEASANT CLOUDY    20  15  81 CALM      30.19S
MUSKEGON       MOCLDY    31  22  69 SW10      30.20F WCI  22
SOUTH HAVEN    PTCLDY    23  18  81 S7        30.24S WCI  15
$$
MIZ016>042-311500-
NORTHERN LOWER MICHIGAN

CITY           SKY/WX    TMP DP  RH WIND       PRES   REMARKS
ALPENA         CLOUDY    15  11  83 S6        30.17F WCI   6
BEAVER ISLAND  CLOUDY    25  17  71 CALM      30.12R
CADILLAC       CLOUDY    17  13  86 SW5       30.11S WCI  10
CHARLEVOIX     CLOUDY    20  16  84 S8        30.15S WCI  10
FRANKFORT      CLOUDY    29  21  72 W12       30.15R WCI  19
GAYLORD        CLOUDY    15  12  88 S7        30.10S WCI   5
GRAYLING       CLOUDY    16  12  82 CALM      30.14S
HARBOR SPRINGS CLOUDY    20  15  80 CALM      30.12S
HOUGHTON LAKE  CLOUDY    15  10  80 SW5       30.15R WCI   8
MANISTEE       CLOUDY    19  12  73 CALM      30.17S
OSCODA         CLOUDY    14  11  87 SW6       30.20S WCI   5
PELLSTON       CLOUDY    17  13  84 SE5       30.13S WCI  10
TRAVERSE CITY  CLOUDY    22  14  71 VRB5      30.14S WCI  16
$$
MIZ007>008-015-311500-
EASTERN UPPER MICHIGAN

CITY           SKY/WX    TMP DP  RH WIND       PRES   REMARKS
KINROSS        CLOUDY    16  16 100 S3        30.10S
MACKINAC ISLAN CLOUDY    17  14  89 S6        30.11S WCI   8
NEWBERRY       CLOUDY    17  13  84 SW7       30.09R WCI   8
S. S. MARIE    LGT SNOW  12   8  84 CALM      30.11F FOG
$$
MIZ004>006-011>014-085-311500-
CENTRAL UPPER MICHIGAN

CITY           SKY/WX    TMP DP  RH WIND       PRES   REMARKS
MANISTIQUE     CLOUDY    20  13  74 W9        30.11R WCI   9
ESCANABA       CLOUDY    19   9  63 W8        30.13S WCI   9
MENOMINEE      CLOUDY    21  10  63 W5        30.14S WCI  15
SAWYER-GWINN   CLOUDY    16  12  86 CALM      30.08R
$$
MIZ001>003-009>011-084-311500-
WESTERN UPPER MICHIGAN

CITY           SKY/WX    TMP DP  RH WIND       PRES   REMARKS
IRON MOUNTAIN  CLOUDY    20  14  77 W7        30.09S WCI  11
HOUGHTON       CLOUDY    21  14  74 NW18      30.08R WCI   6
COPPER HARBOR    N/A     23  17  78 N22       30.10R WCI   8
IRONWOOD       CLOUDY    21  16  79 W8        30.11R WCI  12
$$

ABBREVIATIONS USED IN REMARKS
   TC - TEMPERATURE IN CELSIUS
  WCI - WIND CHILL INDEX
   HX - HEAT INDEX
  VSB - VISIBILITY




USA.gov is the U.S. government's official web portal to all federal, state and local government web resources and services.